[[{"header":{"parameterUnit":"m.s-1","parameterCategory":1,"la1":30.2991,"la2":30.254,"lo1":-89.0895,"lo2":-89.0444,"dy":0.0017,"dx":0.0017,"nx":28,"ny":28,"refTime":"2025-09-01T09:00:00:Z","depth":0,"parameterNumber":2,"parameterNumberName":"U-component_of_WINDS"},"data":[0,0,0,0,0,0,0,0,0,0,0,0,0,0,0,0,0,0,0,0,0,0,0,0,0,0,0,0,0,0,0,0,0,0,0,0,0,0,0,0,0,0,0,0,0,0,0,0,0,0,0,0,0,0,0,0,0,0,-5.2873,-5.2874,0,-5.2946,-5.2947,-5.2948,-5.2801,-5.2796,-5.2792,-5.2787,-5.286,-5.2866,-5.2872,0,0,0,0,0,0,0,0,0,0,0,0,0,-5.2605,-5.261,-5.2873,-5.2874,-5.2875,-5.2946,-5.2947,-5.2948,-5.2802,-5.2796,-5.279,-5.2785,-5.2858,-5.2865,-5.2873,0,0,0,0,0,0,0,0,0,0,0,0,0,-5.2704,-5.2612,-5.2873,-5.2811,-5.2806,-5.2946,-5.2947,-5.2948,-5.2803,-5.2796,-5.2789,-5.2782,-5.2855,-5.2864,-5.2874,-5.3077,0,0,-5.2903,-5.2907,0,0,0,0,0,0,0,0,-5.2698,-5.2714,-5.2819,-5.2815,-5.281,-5.2857,-5.2878,-5.2991,-5.2805,-5.2804,-5.2787,-5.2779,-5.2865,-5.2873,-5.2902,-5.308,-5.3083,-5.2904,-5.291,-5.2914,-5.2917,0,0,0,0,0,0,0,-5.2692,-5.271,-5.2902,-5.2821,-5.2815,-5.2778,-5.2784,-5.2899,-5.2874,-5.2804,-5.2793,-5.2804,-5.2861,-5.2893,-5.2903,-5.3084,-5.2904,-5.2912,-5.2918,-5.2922,-5.3429,-5.3436,0,0,0,0,0,0,-5.2693,-5.2705,-5.2899,-5.2904,-5.2736,-5.2789,-5.2796,-5.2849,-5.2872,-5.2869,-5.281,-5.2797,-5.288,-5.2892,-5.2905,-5.3141,-5.2914,-5.2923,-5.2928,-5.3421,-5.343,-5.3439,0,0,0,0,0,0,-5.2688,-5.2712,-5.2897,-5.2802,-5.2822,-5.2801,-5.2863,-5.2855,-5.2887,-5.2877,-5.2871,-5.2848,-5.2875,-5.2891,-5.3034,-5.3142,-5.2927,-5.2936,-5.3412,-5.3424,-5.3434,-5.3617,0,0,0,0,0,0,-5.2681,-5.2711,-5.2789,-5.2805,-5.2828,-5.3027,-5.2869,-5.2861,-5.2904,-5.2888,-5.2911,-5.2908,-5.2871,-5.3021,-5.3044,-5.3151,-5.2943,-5.3402,-5.3417,-5.3431,-5.3602,-5.3634,-5.3661,0,0,0,0,0,-5.2672,-5.2837,-5.2793,-5.2817,-5.2925,-5.3033,-5.3046,-5.3,-5.2914,-5.299,-5.2984,-5.2907,-5.3127,-5.3037,-5.3062,-5.3173,-5.3395,-5.3413,-5.343,-5.3588,-5.3627,-5.3661,0,0,0,0,0,0,-5.2834,-5.2838,-5.2789,-5.2966,-5.3,-5.3008,-5.3104,-5.3044,-5.3103,-5.3085,-5.3025,-5.3032,-5.3186,-5.3194,-5.3094,-5.3369,-5.3246,-5.3269,-5.3358,-5.3395,-5.3425,-5.3418,-5.2951,0,0,0,0,0,-5.289,-5.2979,-5.2977,-5.3133,-5.3153,-5.3126,-5.3171,-5.3133,-5.3166,-5.318,-5.3183,-5.3218,-5.3293,-5.3345,-5.3415,-5.3603,-5.3604,-5.3691,-5.3721,-5.3746,-5.3766,-5.3863,-5.3901,-5.3496,-5.3495,-5.3495,0,0,-5.3007,-5.3021,-5.308,-5.3166,-5.3188,-5.3279,-5.3139,-5.3242,-5.3309,-5.3195,-5.333,-5.3334,-5.3368,-5.3534,-5.3607,-5.3545,-5.3878,-5.3768,-5.3788,-5.3794,-5.3885,-5.3923,-5.3957,-5.3507,-5.3505,-5.3503,0,0,-5.3267,-5.3287,-5.3417,-5.3443,-5.3478,-5.3459,-5.3491,-5.3508,-5.3506,-5.3641,-5.3556,-5.3635,-5.3768,-5.3795,-5.3826,-5.4095,-5.4026,-5.412,-5.4274,-5.437,-5.4402,-5.4429,-5.4523,-5.4557,-5.414,-5.414,-5.4141,0,-5.3407,-5.3543,-5.3492,-5.36,-5.3639,-5.3541,-5.3671,-5.3698,-5.3755,-5.3783,-5.3714,-5.3877,-5.3894,-5.4063,-5.4128,-5.4158,-5.419,-5.4115,-5.4401,-5.4429,-5.4454,-5.4542,-5.4578,-5.4151,-5.415,-5.4149,-5.4148,0,-5.3712,-5.3808,-5.3908,-5.3965,-5.4016,-5.4135,-5.4101,-5.4158,-5.4116,-5.4104,-5.424,-5.4257,-5.4327,-5.4364,-5.4324,-5.4528,-5.4488,-5.4412,-5.4286,-5.4505,-5.4586,-5.462,-5.4167,-5.4163,-5.416,-5.4157,0,0,-5.4075,-5.4102,-5.414,-5.4163,-5.4195,-5.4267,-5.4381,-5.445,-5.4499,-5.4541,-5.4633,-5.4748,-5.4677,-5.4712,-5.4674,-5.4758,-5.4967,-5.467,-5.467,-5.4723,-5.5189,-5.5245,-5.5285,-5.4922,-5.4929,-5.4934,-5.5185,0,-5.433,-5.4526,-5.4484,-5.4676,-5.4762,-5.467,-5.4768,-5.4798,-5.479,-5.486,-5.485,-5.4932,-5.4833,-5.4853,-5.4932,-5.4925,-5.5059,-5.4906,-5.5005,-5.501,-5.4997,-5.5328,-5.5388,-5.5624,-5.5217,-5.5223,-5.5226,0,-5.4653,-5.4708,-5.4909,-5.4925,-5.4959,-5.5049,-5.5107,-5.5177,-5.5208,-5.5196,-5.5236,-5.5181,-5.5291,-5.5167,-5.5318,-5.5215,-5.5253,-5.5255,-5.5263,-5.5268,-5.513,-5.534,-5.5699,-5.5733,-5.5277,-5.5273,-5.5269,0,-5.4894,-5.5018,-5.5154,-5.5177,-5.52,-5.5265,-5.5277,-5.5301,-5.5345,-5.5396,-5.5423,-5.5487,-5.5521,-5.5571,-5.5534,-5.5448,-5.569,-5.5563,-5.5681,-5.5682,-5.5735,-5.5731,-5.6102,-5.5765,-5.5764,-5.5763,-5.5763,0,-5.5182,-5.5308,-5.5262,-5.5345,-5.5483,-5.5432,-5.557,-5.5571,-5.5593,-5.5673,-5.5598,-5.5675,-5.5623,-5.5696,-5.5668,-5.5795,-5.5812,-5.5804,-5.5794,-5.5809,-5.581,-5.5831,-5.5812,-5.5773,-5.5771,-5.5769,-5.5767,0,-5.5473,-5.5448,-5.5589,-5.5599,-5.5605,-5.5706,-5.5713,-5.579,-5.5776,-5.5879,-5.59,-5.5878,-5.5959,-5.5928,-5.6015,-5.5995,-5.6157,-5.6128,-5.6147,-5.6139,-5.6257,-5.6245,-5.6653,-5.6702,-5.6336,-5.6339,-5.6342,0,-5.5657,-5.5752,-5.5772,-5.5821,-5.5838,-5.5919,-5.5962,-5.5916,-5.5964,-5.6006,-5.6077,-5.6152,-5.6209,-5.6343,-5.6333,-5.6399,-5.6368,-5.6506,-5.6377,-5.6388,-5.6367,-5.636,-5.6368,-5.6531,-5.6536,-5.6539,-5.6542,0,-5.5985,-5.5967,-5.6034,-5.6097,-5.6151,-5.6198,-5.6238,-5.6282,-5.6237,-5.6296,-5.6378,-5.6422,-5.651,-5.6584,-5.6642,-5.6653,-5.659,-5.6583,-5.6613,-5.6628,-5.6634,-5.6629,-5.6215,-5.6573,-5.657,-5.6568,-5.6566,-5.6565,-5.6226,-5.6305,-5.6331,-5.6407,-5.6432,-5.6471,-5.6543,-5.6538,-5.6606,-5.6674,-5.6642,-5.6737,-5.6763,-5.6834,-5.6854,-5.6926,-5.6872,-5.6917,-5.6927,-5.6938,-5.6952,-5.6625,-5.6937,-5.6936,-5.6935,-5.6935,-5.6934,0,-5.6547,-5.6559,-5.663,-5.6688,-5.6748,-5.6685,-5.6725,-5.6779,-5.6863,-5.6894,-5.6951,-5.7044,-5.7116,-5.7113,-5.7178,-5.7237,-5.7209,-5.7255,-5.7249,-5.7252,-5.6999,-5.6965,-5.7276,-5.7276,-5.7276,-5.7276,-5.7276,-5.7276,-5.6721,-5.685,-5.6836,-5.6976,-5.6987,-5.7079,-5.7107,-5.7142,-5.7166,-5.7274,-5.7333,-5.733,-5.7347,-5.7413,-5.7475,-5.7472,-5.7498,-5.7555,-5.7541,-5.7304,-5.727,-5.7237,-5.7205,-5.7561,-5.7562,-5.7787,-5.7789,-5.7791]},{"header":{"parameterUnit":"m.s-1","parameterCategory":1,"la1":30.2991,"la2":30.254,"lo1":-89.0895,"lo2":-89.0444,"dy":0.0017,"dx":0.0017,"nx":28,"ny":28,"refTime":"2025-09-01T09:00:00:Z","depth":0,"parameterNumber":3,"parameterNumberName":"V-component_of_WINDS"},"data":[0,0,0,0,0,0,0,0,0,0,0,0,0,0,0,0,0,0,0,0,0,0,0,0,0,0,0,0,0,0,0,0,0,0,0,0,0,0,0,0,0,0,0,0,0,0,0,0,0,0,0,0,0,0,0,0,0,0,-1.1575,-1.1576,0,-1.1641,-1.1641,-1.1642,-1.1672,-1.1672,-1.1672,-1.1672,-1.174,-1.1742,-1.1744,0,0,0,0,0,0,0,0,0,0,0,0,0,-1.1475,-1.1477,-1.1575,-1.1576,-1.1576,-1.164,-1.1641,-1.1642,-1.1672,-1.1672,-1.1672,-1.1672,-1.174,-1.1742,-1.1744,0,0,0,0,0,0,0,0,0,0,0,0,0,-1.1527,-1.1477,-1.1575,-1.1599,-1.1602,-1.164,-1.1641,-1.1642,-1.1672,-1.1672,-1.1672,-1.1672,-1.1739,-1.1742,-1.1745,-1.1764,0,0,-1.1753,-1.1754,0,0,0,0,0,0,0,0,-1.1524,-1.1531,-1.1594,-1.1597,-1.16,-1.1648,-1.1631,-1.1683,-1.1672,-1.1645,-1.1672,-1.1671,-1.171,-1.1715,-1.1728,-1.1768,-1.1771,-1.1753,-1.1755,-1.1756,-1.1757,0,0,0,0,0,0,0,-1.1521,-1.1528,-1.1601,-1.1595,-1.1599,-1.1607,-1.1614,-1.1641,-1.1677,-1.1648,-1.165,-1.1657,-1.1711,-1.1725,-1.1729,-1.1772,-1.1753,-1.1756,-1.1758,-1.1759,-1.183,-1.183,0,0,0,0,0,0,-1.1513,-1.1525,-1.1599,-1.1603,-1.1561,-1.1608,-1.1617,-1.1633,-1.1677,-1.1684,-1.1657,-1.1658,-1.172,-1.1726,-1.1732,-1.1757,-1.1756,-1.1759,-1.1761,-1.183,-1.183,-1.183,0,0,0,0,0,0,-1.1511,-1.1519,-1.1596,-1.1565,-1.1575,-1.161,-1.1628,-1.1634,-1.1648,-1.1684,-1.1691,-1.1664,-1.172,-1.1728,-1.1756,-1.176,-1.176,-1.1763,-1.1829,-1.183,-1.183,-1.1809,0,0,0,0,0,0,-1.1508,-1.1518,-1.1526,-1.1565,-1.1577,-1.1619,-1.1628,-1.1635,-1.1652,-1.1654,-1.1693,-1.1699,-1.1721,-1.1751,-1.1759,-1.1764,-1.1765,-1.1829,-1.183,-1.183,-1.1809,-1.1808,-1.1807,0,0,0,0,0,-1.1504,-1.1518,-1.1527,-1.1535,-1.1587,-1.1619,-1.1626,-1.165,-1.1653,-1.1661,-1.1684,-1.1698,-1.1758,-1.1754,-1.1762,-1.1769,-1.1829,-1.1829,-1.183,-1.181,-1.1808,-1.1807,0,0,0,0,0,0,-1.1481,-1.1524,-1.1534,-1.156,-1.1586,-1.1624,-1.1635,-1.1648,-1.1673,-1.1674,-1.1704,-1.1712,-1.1737,-1.1756,-1.175,-1.179,-1.1795,-1.1797,-1.1777,-1.1776,-1.1775,-1.177,-1.1768,0,0,0,0,0,-1.1478,-1.15,-1.1537,-1.1557,-1.1569,-1.16,-1.1615,-1.1631,-1.1658,-1.1669,-1.1695,-1.1721,-1.1746,-1.1762,-1.1787,-1.1812,-1.182,-1.182,-1.1819,-1.1818,-1.182,-1.1833,-1.1834,-1.1831,-1.1831,-1.1831,0,0,-1.1475,-1.1501,-1.1513,-1.1553,-1.1575,-1.1596,-1.1609,-1.1632,-1.1648,-1.1673,-1.17,-1.172,-1.1751,-1.1777,-1.179,-1.1794,-1.1822,-1.1819,-1.1818,-1.182,-1.1834,-1.1834,-1.1834,-1.1832,-1.1832,-1.1831,0,0,-1.1479,-1.1501,-1.1519,-1.154,-1.1572,-1.1592,-1.1596,-1.1632,-1.1646,-1.1673,-1.1692,-1.1712,-1.1755,-1.1776,-1.1792,-1.1802,-1.1815,-1.1809,-1.1805,-1.1818,-1.1818,-1.1818,-1.1821,-1.1822,-1.1811,-1.1811,-1.1811,0,-1.147,-1.1503,-1.1528,-1.1549,-1.1566,-1.1588,-1.1607,-1.1626,-1.1665,-1.1676,-1.1679,-1.1732,-1.1755,-1.1785,-1.1787,-1.18,-1.1806,-1.1805,-1.1816,-1.1816,-1.1817,-1.182,-1.1821,-1.181,-1.181,-1.181,-1.181,0,-1.1491,-1.1513,-1.1525,-1.156,-1.1578,-1.1598,-1.1625,-1.1641,-1.1655,-1.1674,-1.1702,-1.1729,-1.176,-1.1768,-1.1783,-1.1801,-1.1802,-1.181,-1.1816,-1.1816,-1.1819,-1.1821,-1.1808,-1.1809,-1.1809,-1.1809,0,0,-1.1483,-1.153,-1.1534,-1.155,-1.1586,-1.1604,-1.1624,-1.1653,-1.1666,-1.1691,-1.1709,-1.1743,-1.1751,-1.1769,-1.1786,-1.1797,-1.1802,-1.1804,-1.1805,-1.1802,-1.1823,-1.1816,-1.1817,-1.1811,-1.1811,-1.1812,-1.182,0,-1.1492,-1.1529,-1.1551,-1.158,-1.16,-1.1621,-1.1639,-1.1663,-1.1681,-1.1701,-1.1722,-1.1746,-1.1754,-1.1765,-1.1777,-1.1799,-1.1807,-1.1799,-1.1828,-1.1829,-1.1819,-1.1819,-1.1813,-1.182,-1.1822,-1.1822,-1.1822,0,-1.1507,-1.1531,-1.1561,-1.1593,-1.1603,-1.1618,-1.1646,-1.1665,-1.1692,-1.1705,-1.1724,-1.1741,-1.1763,-1.1767,-1.1798,-1.1792,-1.1805,-1.1817,-1.1818,-1.1822,-1.1825,-1.1823,-1.1823,-1.1823,-1.1825,-1.1824,-1.1824,0,-1.1497,-1.1537,-1.156,-1.1573,-1.1611,-1.1622,-1.1638,-1.1665,-1.1681,-1.1705,-1.1715,-1.1742,-1.1756,-1.1776,-1.1799,-1.18,-1.1828,-1.1833,-1.1839,-1.1838,-1.1844,-1.1843,-1.1845,-1.1852,-1.1852,-1.1852,-1.1852,0,-1.1505,-1.1523,-1.1556,-1.157,-1.159,-1.1615,-1.1634,-1.1652,-1.1676,-1.1694,-1.1713,-1.173,-1.1759,-1.1779,-1.1798,-1.182,-1.1827,-1.1837,-1.1842,-1.1835,-1.1834,-1.1845,-1.1845,-1.1852,-1.1852,-1.1852,-1.1852,0,-1.1498,-1.1521,-1.1548,-1.1581,-1.159,-1.1603,-1.1632,-1.1646,-1.1665,-1.1687,-1.1694,-1.1723,-1.1748,-1.1772,-1.1806,-1.1818,-1.184,-1.1846,-1.183,-1.1833,-1.1837,-1.1836,-1.1846,-1.1848,-1.1853,-1.1853,-1.1853,0,-1.1501,-1.1515,-1.1549,-1.1562,-1.1578,-1.1599,-1.1614,-1.1639,-1.1654,-1.1685,-1.1695,-1.1721,-1.1743,-1.1781,-1.1806,-1.1831,-1.1838,-1.184,-1.1842,-1.1835,-1.1838,-1.1836,-1.1838,-1.1839,-1.1839,-1.1838,-1.1838,0,-1.1504,-1.1514,-1.1536,-1.1561,-1.1578,-1.1599,-1.1621,-1.1631,-1.1659,-1.1675,-1.17,-1.1717,-1.175,-1.1775,-1.1803,-1.182,-1.1834,-1.1837,-1.184,-1.1833,-1.1823,-1.1828,-1.1828,-1.1837,-1.1837,-1.1837,-1.1837,-1.1837,-1.1502,-1.1515,-1.1541,-1.1563,-1.1582,-1.1601,-1.1616,-1.1636,-1.1657,-1.1685,-1.1698,-1.1723,-1.1749,-1.1787,-1.1804,-1.1823,-1.1827,-1.1831,-1.1832,-1.1833,-1.1831,-1.182,-1.1829,-1.1829,-1.1829,-1.1829,-1.1829,0,-1.1506,-1.1523,-1.1543,-1.1572,-1.159,-1.16,-1.1625,-1.1639,-1.166,-1.1682,-1.1703,-1.1731,-1.1755,-1.1781,-1.1806,-1.1817,-1.1824,-1.1823,-1.1822,-1.1826,-1.1826,-1.1821,-1.1817,-1.1817,-1.1817,-1.1817,-1.1817,-1.1817,-1.151,-1.1532,-1.1545,-1.1576,-1.1593,-1.1616,-1.1629,-1.1647,-1.1665,-1.1695,-1.1715,-1.1731,-1.1755,-1.1782,-1.1804,-1.1811,-1.1819,-1.1816,-1.1825,-1.1825,-1.1826,-1.1827,-1.1822,-1.1818,-1.1818,-1.1823,-1.1823,-1.1823]}]]